Regional Weather Roundup
Issued by NWS Sioux Falls, SD

Home | Current Version | Previous Version | Graphics & Text | Print | Product List | Glossary Off
Versions: 1 2 3 4 5 6 7 8 9 10 11 12 13 14 15 16 17 18 19 20 21 22 23 24 25 26 27 28 29 30 31 32 33 34 35 36 37 38 39 40 41 42 43 44 45 46 47 48 49 50

092
ASUS43 KFSD 202210
RWRFSD

WEATHER ROUNDUP FOR SE SOUTH DAKOTA/SW MINNESOTA/NW IOWA
NATIONAL WEATHER SERVICE SIOUX FALLS SD
400 PM CST MON FEB 20 2017

NOTE: "FAIR" INDICATES FEW OR NO CLOUDS BELOW 12,000 FEET WITH NO
SIGNIFICANT WEATHER AND OR OBSTRUCTIONS TO VISIBILITY.


SDZ038>040-050-052>070-202300-
SOUTHEAST SOUTH DAKOTA

CITY           SKY/WX    TMP DP  RH WIND       PRES   REMARKS
BROOKINGS      MOSUNNY   50  43  77 NW18G26   29.69R
CHAMBERLAIN    SUNNY     61  38  42 NW15      29.79S
HURON          SUNNY     57  44  62 NW13      29.74R
MADISON        MOCLDY    50  50 100 NW24G30   29.73R
MITCHELL       SUNNY     57  42  57 NW17      29.78R
SIOUX FALLS    MOSUNNY   53  44  71 NW24G31   29.74R
WINNER         FAIR      63  25  23 NW22G33   29.80R
YANKTON        SUNNY    N/A N/A N/A W21G28    29.76R
$$

MNZ071-072-080-081-089-090-097-098-202300-
SOUTHWEST MINNESOTA

CITY           SKY/WX    TMP DP  RH WIND       PRES   REMARKS
FAIRMONT       LGT RAIN  55  54  96 S10       29.70S FOG
JACKSON        PTSUNNY   54  54 100 S12       29.68F FOG
LUVERNE        CLOUDY    50  43  76 W21       29.73R
MARSHALL       CLOUDY    54  50  87 W21       29.65R
MONTEVIDEO     CLOUDY    54  54 100 SW8       29.63R FOG
PIPESTONE      CLOUDY    48  43  81 NW16G26   29.70R
REDWOOD FALLS  CLOUDY    54  52  93 SW8       29.64R FOG
TRACY          CLOUDY    55  51  86 SW10G18   29.64R
WINDOM         CLOUDY    55  54  94 S13       29.66F FOG
WORTHINGTON    CLOUDY    50  47  89 SW14      29.68R
$$

IAZ001>003-012>014-020>022-031-032-NEZ013-014-SDZ071-202300-
NORTHWEST IOWA

CITY           SKY/WX    TMP DP  RH WIND       PRES   REMARKS
CHEROKEE       CLOUDY    51  47  88 W9G16     29.74R
DENISON        CLOUDY    59  57  94 SW7       29.73R
ESTHERVILLE    CLOUDY    55  55 100 SW13      29.70S FOG
LE MARS        CLOUDY    52  45  76 W9        29.77R
SHELDON        CLOUDY    50  50 100 SW10      29.70S
SIOUX CITY     CLOUDY    56  43  61 NW17      29.75S
SPENCER        CLOUDY    56  53  90 W20       29.71S
STORM LAKE     CLOUDY    57  55  94 SW14      29.73S
$$

ABBREVIATIONS USED IN REMARKS
   TC - TEMPERATURE IN CELSIUS
  WCI - WIND CHILL INDEX
   HX - HEAT INDEX
  VSB - VISIBILITY





USA.gov is the U.S. government's official web portal to all federal, state and local government web resources and services.